Regional Weather Roundup
Issued by NWS

Home | Current Version | Previous Version | Graphics & Text | Print | Product List | Glossary On
Versions: 1 2 3 4 5 6 7 8 9 10 11 12 13 14 15 16 17 18 19 20 21 22 23 24 25 26 27 28 29 30 31 32 33 34 35 36 37 38 39 40 41 42 43 44 45 46 47 48 49 50
000
ASUS44 KMEG 282100
RWRTN
TENNESSEE HOURLY STATE WEATHER ROUNDUP
NATIONAL WEATHER SERVICE MEMPHIS TN
300 PM CST SAT FEB 28 2015

TNZ002-004-019-021-049-052-054-088>092-282200-
WEST TENNESSEE

CITY           SKY/WX    TMP DP  RH WIND       PRES   REMARKS
MEMPHIS INTL   PTSUNNY   48  17  29 N5        30.43F
NWS MEMPHIS      N/A     46 N/A N/A MISG        N/A
JACKSON        MOSUNNY   47  17  30 VRB5      30.44S
DYERSBURG      CLOUDY    36  12  38 CALM      30.49R
UNION CITY     MOSUNNY   34  19  55 NE5       30.46S WCI  30
PARIS          CLOUDY    37  18  44 E7        30.46R WCI  32
LEXINGTON      MOSUNNY   46  18  31 E3        30.42F
SAVANNAH       SUNNY     52  21  30 NW6       30.41S
$$

TNZ008-025-027-028-033-062-065-066-282200-
NORTH MIDDLE TENNESSEE

CITY           SKY/WX    TMP DP  RH WIND       PRES   REMARKS
NASHVILLE      PTSUNNY   48  22  35 CALM      30.46F
CLARKSVILLE    PTSUNNY   38  23  55 E9        30.48F WCI  31
COOKEVILLE     SUNNY     52  32  46 SE6       30.45S
CROSSVILLE     MOSUNNY   47  28  47 S7        30.45F
$$

TNZ061-075-076-078-094-096-097-282200-
SOUTH MIDDLE TENNESSEE

CITY           SKY/WX    TMP DP  RH WIND       PRES   REMARKS
FAYETTEVILLE   SUNNY     52  30  43 S6          N/A
TULLAHOMA      SUNNY     52  28  40 SE3       30.43F
WINCHESTER     MOSUNNY   52  30  43 SE10      30.44S
COLUMBIA         N/A     52  28  40 VRB5      30.41F
SHELBYVILLE    SUNNY     55  34  44 CALM      30.44F
$$

TNZ017-018-042-046-047-282200-
NORTHEAST TENNESSEE

CITY           SKY/WX    TMP DP  RH WIND       PRES   REMARKS
TRI CITIES     PTSUNNY   48  25  40 NE3       30.52S
ELIZABETHTON   CLEAR     48  25  40 CALM      30.50S
$$

TNZ012-013-036-069-073-074-282200-
CENTRAL EAST TENNESSEE

CITY           SKY/WX    TMP DP  RH WIND       PRES   REMARKS
KNOXVILLE      PTSUNNY   46  26  45 N8        30.50F
OAK RIDGE      MOSUNNY   48  23  37 CALM      30.51F
GATLINBURG     CLEAR     43  25  49 CALM      30.50S
$$

TNZ083-085-099-282200-
SOUTHEAST TENNESSEE

CITY           SKY/WX    TMP DP  RH WIND       PRES   REMARKS
CHATTANOOGA    PTSUNNY   52  28  39 E7        30.47F
$$

SKY/WX REPORTED AS FAIR MEANS FEW OR NO CLOUDS BELOW
12 THOUSAND FEET.



USA.gov is the U.S. government's official web portal to all federal, state and local government web resources and services.